Tracking 35035 objects as of 16-Aug-2026
HD Live streaming from Space Station
objects crossing your sky now

STARLINK-3676


STARLINK-3676 is no longer on orbit
STARLINK-3676 is classified as:


NORAD ID: 52097
Int'l Code: 2022-029K
Launch date: March 19, 2022
Source: United States (US)
Launch site: AIR FORCE EASTERN TEST RANGE (AFETR)
Decay date: 2022-04-18
Your satellite tracking list
Your tracking list is empty




NASA's NSSDC Master Catalog

Two Line Element Set (TLE):
1 52097U 22029K   22108.04053667  .20071369  12112-4  31799-2 0  9992
2 52097  53.2103 352.3702 0010934 257.9139 102.4221 16.32839205  6012
Source of the keplerian elements: AFSPC